| time (UTC) | temp F | wind direction | speed knots | gust knots | rain 1hr in | rain 24hr in | rain mn in | humidity % | barometer mb |
| 20260505011602 | 68 | 207 | 0.0 | 0.0 | 0.00 | 0.00 | 0.00 | 57 | 1013.0 |
| 20260505004600 | 71 | 207 | 0.0 | 0.0 | 0.00 | 0.00 | 0.00 | 52 | 1012.9 |
| 20260505003059 | 72 | 207 | 0.0 | 0.9 | 0.00 | 0.00 | 0.00 | 50 | 1012.8 |
| 20260505001555 | 73 | 211 | 0.0 | 2.6 | 0.00 | 0.00 | 0.00 | 49 | 1012.6 |
| 20260505000100 | 74 | 34 | 0.0 | 0.9 | 0.00 | 0.00 | 0.00 | 47 | 1012.6 |
| 20260504234615 | 75 | 87 | 0.0 | 2.6 | 0.00 | 0.00 | 0.00 | 45 | 1012.7 |
| 20260504233053 | 75 | 240 | 0.0 | 4.3 | 0.00 | 0.00 | 0.00 | 45 | 1012.8 |
| 20260504231555 | 76 | 193 | 0.9 | 4.3 | 0.00 | 0.00 | 0.00 | 44 | 1012.8 |
| 20260504230050 | 77 | 130 | 0.0 | 3.5 | 0.00 | 0.00 | 0.00 | 46 | 1012.9 |
| 20260504224649 | 77 | 136 | 0.0 | 4.3 | 0.00 | 0.00 | 0.00 | 43 | 1013.0 |
| 20260504223047 | 77 | 178 | 0.9 | 7.0 | 0.00 | 0.00 | 0.00 | 43 | 1013.1 |
| 20260504221557 | 78 | 55 | 0.0 | 6.1 | 0.00 | 0.00 | 0.00 | 43 | 1013.2 |
| 20260504220050 | 78 | 165 | 0.9 | 2.6 | 0.00 | 0.00 | 0.00 | 43 | 1013.1 |
| 20260504214550 | 79 | 169 | 0.9 | 2.6 | 0.00 | 0.00 | 0.00 | 42 | 1013.3 |
| 20260504213051 | 79 | 70 | 0.9 | 3.5 | 0.00 | 0.00 | 0.00 | 41 | 1013.4 |
| 20260504211542 | 80 | 297 | 0.9 | 4.3 | 0.00 | 0.00 | 0.00 | 42 | 1013.5 |
| 20260504210052 | 80 | 95 | 0.9 | 3.5 | 0.00 | 0.00 | 0.00 | 39 | 1013.5 |
| 20260504204619 | 80 | 54 | 0.0 | 3.5 | 0.00 | 0.00 | 0.00 | 39 | 1013.6 |
| 20260504203038 | 81 | 65 | 0.9 | 6.1 | 0.00 | 0.00 | 0.00 | 40 | 1013.7 |
| 20260504201536 | 80 | 147 | 0.9 | 5.2 | 0.00 | 0.00 | 0.00 | 40 | 1013.8 |
| 20260504200038 | 80 | 293 | 0.9 | 4.3 | 0.00 | 0.00 | 0.00 | 38 | 1014.0 |
| 20260504194541 | 80 | 67 | 1.7 | 4.3 | 0.00 | 0.00 | 0.00 | 39 | 1014.3 |
| 20260504193031 | 79 | 102 | 0.9 | 2.6 | 0.00 | 0.00 | 0.00 | 43 | 1014.5 |
| 20260504191529 | 79 | 200 | 0.9 | 3.5 | 0.00 | 0.00 | 0.00 | 44 | 1014.7 |
| 20260504190030 | 79 | 88 | 0.0 | 3.5 | 0.00 | 0.00 | 0.00 | 43 | 1014.8 |
| 20260504184525 | 80 | 157 | 1.7 | 4.3 | 0.00 | 0.00 | 0.00 | 43 | 1015.2 |
| 20260504183022 | 79 | 77 | 1.7 | 5.2 | 0.00 | 0.00 | 0.00 | 41 | 1015.3 |
| 20260504181519 | 79 | 121 | 1.7 | 3.5 | 0.00 | 0.00 | 0.00 | 43 | 1015.6 |
| 20260504180017 | 78 | 182 | 0.0 | 1.7 | 0.00 | 0.00 | 0.00 | 44 | 1015.8 |
| 20260504174515 | 78 | 150 | 0.0 | 4.3 | 0.00 | 0.00 | 0.00 | 46 | 1015.9 |
| 20260504173011 | 77 | 192 | 0.0 | 3.5 | 0.00 | 0.00 | 0.00 | 45 | 1016.2 |
| 20260504171531 | 76 | 285 | 0.9 | 6.1 | 0.00 | 0.00 | 0.00 | 46 | 1016.3 |
| 20260504081531 | 46 | 268 | 0.0 | 0.0 | 0.00 | 0.00 | 0.00 | 95 | 1017.1 |
| 20260504050006 | 50 | 268 | 0.0 | 0.0 | 0.00 | 0.00 | 0.00 | 89 | 1018.3 |
| 20260504044504 | 51 | 268 | 0.0 | 0.0 | 0.00 | 0.00 | 0.00 | 88 | 1018.4 |
| 20260504043002 | 51 | 268 | 0.0 | 0.0 | 0.00 | 0.00 | 0.00 | 87 | 1018.6 |
| 20260504041501 | 52 | 268 | 0.0 | 0.0 | 0.00 | 0.00 | 0.00 | 85 | 1018.6 |
| 20260504040005 | 52 | 268 | 0.0 | 0.0 | 0.00 | 0.00 | 0.00 | 85 | 1018.5 |
| 20260504034503 | 52 | 268 | 0.0 | 0.0 | 0.00 | 0.00 | 0.00 | 84 | 1018.8 |
| 20260504033100 | 53 | 268 | 0.0 | 0.0 | 0.00 | 0.00 | 0.00 | 82 | 1018.9 |
| 20260504031600 | 53 | 268 | 0.0 | 0.0 | 0.00 | 0.00 | 0.00 | 80 | 1018.9 |
| 20260504030059 | 54 | 268 | 0.0 | 0.0 | 0.00 | 0.00 | 0.00 | 78 | 1018.8 |
| 20260504024559 | 55 | 268 | 0.0 | 0.0 | 0.00 | 0.00 | 0.00 | 76 | 1018.6 |
| 20260504023058 | 55 | 268 | 0.0 | 0.0 | 0.00 | 0.00 | 0.00 | 75 | 1018.5 |
| 20260504021557 | 56 | 268 | 0.0 | 0.0 | 0.00 | 0.00 | 0.00 | 73 | 1018.3 |
| 20260504020057 | 57 | 268 | 0.0 | 0.0 | 0.00 | 0.00 | 0.00 | 71 | 1018.3 |
| 20260504014611 | 58 | 268 | 0.0 | 0.0 | 0.00 | 0.00 | 0.00 | 68 | 1018.2 |
| 20260504013056 | 59 | 268 | 0.0 | 0.0 | 0.00 | 0.00 | 0.00 | 67 | 1018.0 |